| time (UTC) | temp F | wind direction | speed MPH | gust MPH | rain 1hr in | rain 24hr in | rain mn in | humidity % | barometer mb |
| 20260831000540 | 72 | 246 | 0.0 | 5.0 | 0.00 | 0.00 | 0.00 | 1 | 1015.6 |
| 20260831000038 | 72 | 246 | 0.0 | 2.0 | 0.00 | 0.00 | 0.00 | 1 | 1015.5 |
| 20260830235753 | 72 | 246 | 0.0 | 2.0 | 0.00 | 0.00 | 0.00 | 1 | 1015.4 |
| 20260830235032 | 72 | 246 | 0.0 | 1.0 | 0.00 | 0.00 | 0.00 | 1 | 1015.3 |
| 20260830234532 | 72 | 246 | 0.0 | 1.0 | 0.00 | 0.00 | 0.00 | 1 | 1015.2 |
| 20260830234031 | 72 | 246 | 0.0 | 0.0 | 0.00 | 0.00 | 0.00 | 1 | 1015.2 |
| 20260830233529 | 72 | 246 | 0.0 | 0.0 | 0.00 | 0.00 | 0.00 | 1 | 1015.2 |
| 20260830233253 | 72 | 246 | 0.0 | 0.0 | 0.00 | 0.00 | 0.00 | 1 | 1015.2 |
| 20260830232527 | 73 | 246 | 0.0 | 0.0 | 0.00 | 0.00 | 0.00 | 1 | 1015.2 |
| 20260830232027 | 73 | 246 | 0.0 | 0.0 | 0.00 | 0.00 | 0.00 | 1 | 1015.2 |
| 20260830231523 | 73 | 246 | 0.0 | 0.0 | 0.00 | 0.00 | 0.00 | 1 | 1015.1 |
| 20260830231021 | 73 | 246 | 0.0 | 0.0 | 0.00 | 0.00 | 0.00 | 1 | 1015.1 |
| 20260830230521 | 73 | 246 | 0.0 | 0.0 | 0.00 | 0.00 | 0.00 | 1 | 1015.0 |
| 20260830230022 | 73 | 246 | 0.0 | 0.0 | 0.00 | 0.00 | 0.00 | 1 | 1015.1 |
| 20260830225743 | 73 | 246 | 0.0 | 0.0 | 0.00 | 0.00 | 0.00 | 1 | 1015.1 |
| 20260830225019 | 74 | 246 | 0.0 | 0.0 | 0.00 | 0.00 | 0.00 | 1 | 1015.3 |
| 20260830224741 | 74 | 246 | 0.0 | 0.0 | 0.00 | 0.00 | 0.00 | 1 | 1015.4 |
| 20260830224016 | 74 | 246 | 0.0 | 0.0 | 0.00 | 0.00 | 0.00 | 1 | 1015.3 |
| 20260830223516 | 74 | 246 | 0.0 | 1.0 | 0.00 | 0.00 | 0.00 | 1 | 1015.3 |
| 20260830223014 | 74 | 246 | 0.0 | 1.0 | 0.00 | 0.00 | 0.00 | 1 | 1015.2 |
| 20260830222513 | 75 | 246 | 0.0 | 4.0 | 0.00 | 0.00 | 0.00 | 1 | 1015.3 |
| 20260830222237 | 75 | 246 | 0.0 | 4.0 | 0.00 | 0.00 | 0.00 | 1 | 1015.2 |
| 20260830221513 | 75 | 246 | 0.0 | 5.0 | 0.00 | 0.00 | 0.00 | 1 | 1015.4 |
| 20260830221013 | 75 | 246 | 0.0 | 5.0 | 0.00 | 0.00 | 0.00 | 1 | 1015.4 |
| 20260830220513 | 75 | 246 | 0.0 | 0.0 | 0.00 | 0.00 | 0.00 | 1 | 1015.3 |
| 20260830220013 | 75 | 246 | 0.0 | 0.0 | 0.00 | 0.00 | 0.00 | 1 | 1015.1 |
| 20260830215512 | 75 | 246 | 0.0 | 0.0 | 0.00 | 0.00 | 0.00 | 1 | 1015.0 |
| 20260830215234 | 75 | 249 | 1.0 | 7.0 | 0.00 | 0.00 | 0.00 | 1 | 1015.0 |
| 20260830214512 | 75 | 250 | 2.0 | 7.0 | 0.00 | 0.00 | 0.00 | 1 | 1015.0 |
| 20260830214321 | 75 | 252 | 2.0 | 7.0 | 0.00 | 0.00 | 0.00 | 1 | 1014.9 |
| 20260830214216 | 75 | 255 | 2.0 | 6.0 | 0.00 | 0.00 | 0.00 | 1 | 1014.9 |
| 20260830213003 | 75 | 257 | 2.0 | 8.0 | 0.00 | 0.00 | 0.00 | 1 | 1015.0 |
| 20260830212457 | 75 | 263 | 2.0 | 8.0 | 0.00 | 0.00 | 0.00 | 1 | 1014.9 |
| 20260830211951 | 76 | 259 | 2.0 | 5.0 | 0.00 | 0.00 | 0.00 | 1 | 1014.9 |
| 20260830211445 | 76 | 259 | 2.0 | 8.0 | 0.00 | 0.00 | 0.00 | 1 | 1015.1 |
| 20260830210939 | 76 | 261 | 2.0 | 8.0 | 0.00 | 0.00 | 0.00 | 1 | 1015.0 |
| 20260830210433 | 76 | 206 | 2.0 | 7.0 | 0.00 | 0.00 | 0.00 | 1 | 1015.0 |
| 20260830210155 | 76 | 250 | 2.0 | 7.0 | 0.00 | 0.00 | 0.00 | 1 | 1015.1 |
| 20260830205421 | 76 | 242 | 2.0 | 7.0 | 0.00 | 0.00 | 0.00 | 1 | 1015.1 |
| 20260830204915 | 76 | 241 | 3.0 | 7.0 | 0.00 | 0.00 | 0.00 | 1 | 1015.1 |
| 20260830204408 | 76 | 257 | 2.0 | 8.0 | 0.00 | 0.00 | 0.00 | 1 | 1015.2 |
| 20260830204125 | 76 | 258 | 2.0 | 8.0 | 0.00 | 0.00 | 0.00 | 1 | 1015.2 |
| 20260830203357 | 76 | 252 | 2.0 | 7.0 | 0.00 | 0.00 | 0.00 | 1 | 1015.1 |
| 20260830203117 | 76 | 253 | 1.0 | 7.0 | 0.00 | 0.00 | 0.00 | 1 | 1015.2 |
| 20260830202345 | 76 | 250 | 1.0 | 6.0 | 0.00 | 0.00 | 0.00 | 1 | 1015.2 |
| 20260830201839 | 76 | 250 | 2.0 | 6.0 | 0.00 | 0.00 | 0.00 | 1 | 1015.2 |
| 20260830201332 | 76 | 249 | 2.0 | 8.0 | 0.00 | 0.00 | 0.00 | 1 | 1015.3 |
| 20260830200826 | 76 | 249 | 1.0 | 8.0 | 0.00 | 0.00 | 0.00 | 1 | 1015.3 |
| 20260830200321 | 76 | 228 | 0.0 | 7.0 | 0.00 | 0.00 | 0.00 | 1 | 1015.4 |
| 20260830200036 | 76 | 231 | 1.0 | 7.0 | 0.00 | 0.00 | 0.00 | 1 | 1015.4 |
| 20260830195310 | 77 | 231 | 2.0 | 8.0 | 0.00 | 0.00 | 0.00 | 1 | 1015.4 |
| 20260830194802 | 77 | 236 | 2.0 | 8.0 | 0.00 | 0.00 | 0.00 | 1 | 1015.6 |
| 20260830194257 | 77 | 240 | 1.0 | 7.0 | 0.00 | 0.00 | 0.00 | 1 | 1015.5 |
| 20260830193751 | 77 | 246 | 1.0 | 5.0 | 0.00 | 0.00 | 0.00 | 1 | 1015.7 |
| 20260830193245 | 77 | 245 | 3.0 | 8.0 | 0.00 | 0.00 | 0.00 | 1 | 1015.7 |
| 20260830192739 | 78 | 253 | 3.0 | 8.0 | 0.00 | 0.00 | 0.00 | 1 | 1015.6 |
| 20260830192233 | 78 | 256 | 4.0 | 9.0 | 0.00 | 0.00 | 0.00 | 1 | 1015.5 |
| 20260830192203 | 78 | 237 | 4.0 | 9.0 | 0.00 | 0.00 | 0.00 | 1 | 1015.7 |
| 20260830191220 | 78 | 202 | 3.0 | 8.0 | 0.00 | 0.00 | 0.00 | 1 | 1015.8 |
| 20260830190714 | 78 | 275 | 3.0 | 9.0 | 0.00 | 0.00 | 0.00 | 1 | 1015.8 |
| 20260830190208 | 78 | 183 | 3.0 | 9.0 | 0.00 | 0.00 | 0.00 | 1 | 1015.8 |
| 20260830185704 | 78 | 269 | 2.0 | 7.0 | 0.00 | 0.00 | 0.00 | 1 | 1015.9 |
| 20260830185157 | 78 | 228 | 3.0 | 8.0 | 0.00 | 0.00 | 0.00 | 1 | 1016.0 |
| 20260830184651 | 78 | 248 | 2.0 | 8.0 | 0.00 | 0.00 | 0.00 | 1 | 1016.0 |
| 20260830184145 | 78 | 252 | 1.0 | 6.0 | 0.00 | 0.00 | 0.00 | 1 | 1016.2 |
| 20260830183639 | 78 | 248 | 2.0 | 8.0 | 0.00 | 0.00 | 0.00 | 1 | 1016.4 |
| 20260830183355 | 78 | 182 | 3.0 | 8.0 | 0.00 | 0.00 | 0.00 | 1 | 1016.2 |
| 20260830182626 | 78 | 257 | 2.0 | 7.0 | 0.00 | 0.00 | 0.00 | 1 | 1016.2 |
| 20260830182121 | 78 | 161 | 2.0 | 7.0 | 0.00 | 0.00 | 0.00 | 1 | 1016.4 |
| 20260830181615 | 77 | 260 | 1.0 | 5.0 | 0.00 | 0.00 | 0.00 | 1 | 1016.6 |
| 20260830181108 | 77 | 261 | 1.0 | 6.0 | 0.00 | 0.00 | 0.00 | 1 | 1016.6 |
| 20260830180603 | 77 | 261 | 1.0 | 6.0 | 0.00 | 0.00 | 0.00 | 1 | 1016.6 |
| 20260830180057 | 77 | 257 | 1.0 | 7.0 | 0.00 | 0.00 | 0.00 | 1 | 1016.5 |
| 20260830175551 | 77 | 258 | 2.0 | 7.0 | 0.00 | 0.00 | 0.00 | 1 | 1016.6 |
| 20260830175045 | 76 | 254 | 2.0 | 6.0 | 0.00 | 0.00 | 0.00 | 1 | 1016.7 |
| 20260830174540 | 76 | 254 | 1.0 | 6.0 | 0.00 | 0.00 | 0.00 | 1 | 1016.8 |
| 20260830174033 | 76 | 255 | 1.0 | 6.0 | 0.00 | 0.00 | 0.00 | 1 | 1016.9 |
| 20260830173751 | 77 | 255 | 2.0 | 6.0 | 0.00 | 0.00 | 0.00 | 1 | 1016.9 |
| 20260830173021 | 77 | 257 | 3.0 | 8.0 | 0.00 | 0.00 | 0.00 | 1 | 1016.8 |
| 20260830172515 | 77 | 257 | 3.0 | 8.0 | 0.00 | 0.00 | 0.00 | 1 | 1016.9 |
| 20260830172008 | 77 | 250 | 2.0 | 6.0 | 0.00 | 0.00 | 0.00 | 1 | 1016.8 |
| 20260830171503 | 76 | 282 | 2.0 | 7.0 | 0.00 | 0.00 | 0.00 | 1 | 1016.9 |
| 20260830170957 | 76 | 286 | 3.0 | 9.0 | 0.00 | 0.00 | 0.00 | 1 | 1016.9 |
| 20260830170451 | 76 | 246 | 2.0 | 9.0 | 0.00 | 0.00 | 0.00 | 1 | 1017.0 |
| 20260830170205 | 76 | 259 | 0.0 | 6.0 | 0.00 | 0.00 | 0.00 | 1 | 1017.0 |
| 20260830165439 | 76 | 258 | 1.0 | 7.0 | 0.00 | 0.00 | 0.00 | 1 | 1017.1 |
| 20260830165159 | 76 | 259 | 3.0 | 7.0 | 0.00 | 0.00 | 0.00 | 1 | 1017.1 |
| 20260830164432 | 76 | 261 | 4.0 | 8.0 | 0.00 | 0.00 | 0.00 | 3 | 1017.1 |
| 20260830163931 | 77 | 250 | 5.0 | 10.0 | 0.00 | 0.00 | 0.00 | 2 | 1017.1 |
| 20260830163431 | 77 | 288 | 5.0 | 10.0 | 0.00 | 0.00 | 0.00 | 1 | 1017.3 |
| 20260830162931 | 77 | 245 | 4.0 | 9.0 | 0.00 | 0.00 | 0.00 | 1 | 1017.4 |
| 20260830162431 | 76 | 259 | 3.0 | 8.0 | 0.00 | 0.00 | 0.00 | 1 | 1017.5 |
| 20260830161931 | 75 | 250 | 4.0 | 8.0 | 0.00 | 0.00 | 0.00 | 1 | 1017.7 |
| 20260830161429 | 75 | 248 | 3.0 | 9.0 | 0.00 | 0.00 | 0.00 | 1 | 1017.7 |
| 20260830160929 | 75 | 260 | 1.0 | 9.0 | 0.00 | 0.00 | 0.00 | 1 | 1017.7 |
| 20260830160429 | 75 | 249 | 1.0 | 7.0 | 0.00 | 0.00 | 0.00 | 1 | 1017.8 |
| 20260830155926 | 75 | 247 | 4.0 | 8.0 | 0.00 | 0.00 | 0.00 | 1 | 1017.9 |
| 20260830155427 | 74 | 248 | 4.0 | 8.0 | 0.00 | 0.00 | 0.00 | 1 | 1017.9 |
| 20260830154928 | 75 | 247 | 3.0 | 8.0 | 0.00 | 0.00 | 0.00 | 1 | 1018.0 |
| 20260830154427 | 75 | 244 | 3.0 | 9.0 | 0.00 | 0.00 | 0.00 | 2 | 1018.1 |
| 20260830153927 | 74 | 283 | 4.0 | 9.0 | 0.00 | 0.00 | 0.00 | 1 | 1018.2 |
| 20260830153427 | 74 | 252 | 5.0 | 9.0 | 0.00 | 0.00 | 0.00 | 2 | 1018.2 |
| 20260830152925 | 74 | 239 | 3.0 | 8.0 | 0.00 | 0.00 | 0.00 | 1 | 1018.4 |
| 20260830152647 | 74 | 254 | 3.0 | 8.0 | 0.00 | 0.00 | 0.00 | 1 | 1018.5 |
| 20260830151923 | 73 | 255 | 3.0 | 8.0 | 0.00 | 0.00 | 0.00 | 1 | 1018.7 |
| 20260830151423 | 73 | 262 | 3.0 | 7.0 | 0.00 | 0.00 | 0.00 | 1 | 1018.6 |
| 20260830150921 | 72 | 259 | 4.0 | 7.0 | 0.00 | 0.00 | 0.00 | 1 | 1018.5 |
| 20260830150419 | 72 | 260 | 4.0 | 7.0 | 0.00 | 0.00 | 0.00 | 1 | 1018.6 |
| 20260830145918 | 72 | 251 | 2.0 | 7.0 | 0.00 | 0.00 | 0.00 | 1 | 1018.6 |
| 20260830145419 | 72 | 251 | 3.0 | 7.0 | 0.00 | 0.00 | 0.00 | 1 | 1018.7 |
| 20260830145137 | 71 | 255 | 4.0 | 8.0 | 0.00 | 0.00 | 0.00 | 1 | 1018.8 |
| 20260830144419 | 71 | 259 | 3.0 | 8.0 | 0.00 | 0.00 | 0.00 | 1 | 1018.9 |
| 20260830143919 | 71 | 258 | 3.0 | 6.0 | 0.00 | 0.00 | 0.00 | 1 | 1018.9 |
| 20260830143419 | 70 | 261 | 3.0 | 6.0 | 0.00 | 0.00 | 0.00 | 1 | 1018.9 |
| 20260830142917 | 70 | 272 | 2.0 | 5.0 | 0.00 | 0.00 | 0.00 | 1 | 1018.9 |
| 20260830142416 | 70 | 271 | 1.0 | 5.0 | 0.00 | 0.00 | 0.00 | 1 | 1019.0 |
| 20260830141914 | 69 | 272 | 0.0 | 5.0 | 0.00 | 0.00 | 0.00 | 1 | 1019.1 |
| 20260830141415 | 69 | 271 | 0.0 | 0.0 | 0.00 | 0.00 | 0.00 | 1 | 1019.1 |
| 20260830140915 | 69 | 271 | 0.0 | 0.0 | 0.00 | 0.00 | 0.00 | 1 | 1019.1 |
| 20260830140413 | 69 | 271 | 0.0 | 2.0 | 0.00 | 0.00 | 0.00 | 1 | 1019.1 |
| 20260830135913 | 69 | 271 | 0.0 | 2.0 | 0.00 | 0.00 | 0.00 | 1 | 1019.1 |
| 20260830135407 | 69 | 271 | 0.0 | 2.0 | 0.00 | 0.00 | 0.00 | 1 | 1019.1 |
| 20260830134908 | 69 | 272 | 1.0 | 5.0 | 0.00 | 0.00 | 0.00 | 1 | 1019.0 |
| 20260830134405 | 69 | 272 | 2.0 | 6.0 | 0.00 | 0.00 | 0.00 | 1 | 1018.9 |
| 20260830134347 | 69 | 273 | 3.0 | 6.0 | 0.00 | 0.00 | 0.00 | 1 | 1019.0 |
| 20260830133403 | 69 | 274 | 2.0 | 6.0 | 0.00 | 0.00 | 0.00 | 1 | 1019.0 |
| 20260830132903 | 69 | 286 | 2.0 | 7.0 | 0.00 | 0.00 | 0.00 | 1 | 1019.1 |
| 20260830132404 | 69 | 286 | 2.0 | 7.0 | 0.00 | 0.00 | 0.00 | 1 | 1019.2 |
| 20260830132126 | 68 | 285 | 2.0 | 7.0 | 0.00 | 0.00 | 0.00 | 1 | 1019.2 |
| 20260830131402 | 68 | 288 | 2.0 | 7.0 | 0.00 | 0.00 | 0.00 | 1 | 1019.3 |
| 20260830130901 | 68 | 252 | 2.0 | 6.0 | 0.00 | 0.00 | 0.00 | 1 | 1019.3 |
| 20260830130624 | 68 | 252 | 3.0 | 7.0 | 0.00 | 0.00 | 0.00 | 1 | 1019.4 |
| 20260830125901 | 67 | 254 | 3.0 | 7.0 | 0.00 | 0.00 | 0.00 | 1 | 1019.5 |
| 20260830125400 | 67 | 248 | 2.0 | 7.0 | 0.00 | 0.00 | 0.00 | 1 | 1019.5 |
| 20260830125121 | 66 | 238 | 2.0 | 6.0 | 0.00 | 0.00 | 0.00 | 1 | 1019.6 |
| 20260830124401 | 66 | 236 | 2.0 | 6.0 | 0.00 | 0.00 | 0.00 | 1 | 1019.7 |
| 20260830124121 | 65 | 234 | 2.0 | 6.0 | 0.00 | 0.00 | 0.00 | 1 | 1019.7 |
| 20260830123624 | 65 | 232 | 1.0 | 6.0 | 0.00 | 0.00 | 0.00 | 1 | 1019.9 |
| 20260830122901 | 64 | 229 | 0.0 | 5.0 | 0.00 | 0.00 | 0.00 | 1 | 1019.9 |
| 20260830122628 | 64 | 228 | 0.0 | 6.0 | 0.00 | 0.00 | 0.00 | 1 | 1020.0 |
| 20260830121859 | 63 | 228 | 0.0 | 6.0 | 0.00 | 0.00 | 0.00 | 1 | 1020.1 |
| 20260830121400 | 63 | 225 | 0.0 | 4.0 | 0.00 | 0.00 | 0.00 | 1 | 1020.1 |
| 20260830120859 | 62 | 223 | 0.0 | 5.0 | 0.00 | 0.00 | 0.00 | 1 | 1020.1 |
| 20260830120622 | 62 | 223 | 0.0 | 5.0 | 0.00 | 0.00 | 0.00 | 1 | 1020.0 |
| 20260830115859 | 61 | 0 | 0.0 | 0.0 | 0.00 | 0.00 | 0.00 | 1 | 1020.0 |
| 20260830115358 | 61 | 0 | 0.0 | 0.0 | 0.00 | 0.00 | 0.00 | 1 | 1020.0 |
| 20260830114858 | 61 | 0 | 0.0 | 0.0 | 0.00 | 0.00 | 0.00 | 1 | 1020.0 |
| 20260830114359 | 60 | 0 | 0.0 | 0.0 | 0.00 | 0.00 | 0.00 | 1 | 1020.0 |
| 20260830114119 | 60 | 0 | 0.0 | 0.0 | 0.00 | 0.00 | 0.00 | 1 | 1020.2 |
| 20260830113359 | 60 | 0 | 0.0 | 0.0 | 0.00 | 0.00 | 0.00 | 1 | 1020.3 |
| 20260830112859 | 59 | 0 | 0.0 | 0.0 | 0.00 | 0.00 | 0.00 | 1 | 1020.3 |
| 20260830112359 | 59 | 0 | 0.0 | 0.0 | 0.00 | 0.00 | 0.00 | 1 | 1020.3 |
| 20260830112118 | 59 | 0 | 0.0 | 0.0 | 0.00 | 0.00 | 0.00 | 1 | 1020.2 |
| 20260830111355 | 59 | 215 | 0.0 | 0.0 | 0.00 | 0.00 | 0.00 | 1 | 1020.2 |
| 20260830110855 | 59 | 216 | 0.0 | 0.0 | 0.00 | 0.00 | 0.00 | 1 | 1020.3 |
| 20260830105854 | 59 | 216 | 0.0 | 0.0 | 0.00 | 0.00 | 0.00 | 1 | 1020.3 |
| 20260830105354 | 59 | 216 | 0.0 | 0.0 | 0.00 | 0.00 | 0.00 | 1 | 1020.3 |
| 20260830105120 | 59 | 216 | 0.0 | 0.0 | 0.00 | 0.00 | 0.00 | 1 | 1020.2 |
| 20260830104355 | 59 | 216 | 0.0 | 0.0 | 0.00 | 0.00 | 0.00 | 1 | 1020.1 |
| 20260830103855 | 59 | 216 | 0.0 | 0.0 | 0.00 | 0.00 | 0.00 | 1 | 1020.2 |
| 20260830103354 | 58 | 216 | 0.0 | 0.0 | 0.00 | 0.00 | 0.00 | 1 | 1020.1 |
| 20260830102852 | 58 | 216 | 0.0 | 0.0 | 0.00 | 0.00 | 0.00 | 1 | 1020.1 |
| 20260830102352 | 58 | 216 | 0.0 | 0.0 | 0.00 | 0.00 | 0.00 | 1 | 1020.1 |
| 20260830101853 | 58 | 216 | 0.0 | 0.0 | 0.00 | 0.00 | 0.00 | 1 | 1020.0 |
| 20260830101351 | 58 | 216 | 0.0 | 0.0 | 0.00 | 0.00 | 0.00 | 1 | 1020.0 |
| 20260830100851 | 58 | 216 | 0.0 | 0.0 | 0.00 | 0.00 | 0.00 | 1 | 1020.0 |
| 20260830100350 | 58 | 216 | 0.0 | 0.0 | 0.00 | 0.00 | 0.00 | 1 | 1020.0 |
| 20260830095848 | 58 | 216 | 0.0 | 0.0 | 0.00 | 0.00 | 0.00 | 1 | 1020.0 |
| 20260830095346 | 58 | 216 | 0.0 | 0.0 | 0.00 | 0.00 | 0.00 | 1 | 1020.1 |
| 20260830094848 | 58 | 216 | 0.0 | 0.0 | 0.00 | 0.00 | 0.00 | 1 | 1020.1 |
| 20260830094347 | 58 | 216 | 0.0 | 0.0 | 0.00 | 0.00 | 0.00 | 1 | 1020.1 |
| 20260830093846 | 58 | 216 | 0.0 | 0.0 | 0.00 | 0.00 | 0.00 | 1 | 1020.1 |
| 20260830093341 | 58 | 216 | 0.0 | 0.0 | 0.00 | 0.00 | 0.00 | 1 | 1020.1 |
| 20260830093109 | 58 | 216 | 0.0 | 0.0 | 0.00 | 0.00 | 0.00 | 1 | 1020.1 |
| 20260830092338 | 58 | 216 | 0.0 | 0.0 | 0.00 | 0.00 | 0.00 | 1 | 1020.2 |
| 20260830092305 | 58 | 216 | 0.0 | 0.0 | 0.00 | 0.00 | 0.00 | 1 | 1020.2 |
| 20260830091916 | 58 | 216 | 0.0 | 0.0 | 0.00 | 0.00 | 0.00 | 1 | 1020.1 |
| 20260830091050 | 58 | 216 | 0.0 | 0.0 | 0.00 | 0.00 | 0.00 | 1 | 1020.2 |
| 20260830090320 | 58 | 216 | 0.0 | 0.0 | 0.00 | 0.00 | 0.00 | 1 | 1020.2 |
| 20260830085814 | 58 | 216 | 0.0 | 0.0 | 0.00 | 0.00 | 0.00 | 1 | 1020.3 |
| 20260830085308 | 58 | 216 | 0.0 | 0.0 | 0.00 | 0.00 | 0.00 | 1 | 1020.2 |
| 20260830084803 | 58 | 216 | 0.0 | 0.0 | 0.00 | 0.00 | 0.00 | 1 | 1020.2 |
| 20260830084256 | 58 | 216 | 0.0 | 0.0 | 0.00 | 0.00 | 0.00 | 1 | 1020.3 |
| 20260830084008 | 58 | 216 | 0.0 | 0.0 | 0.00 | 0.00 | 0.00 | 1 | 1020.3 |
| 20260830083244 | 58 | 216 | 0.0 | 0.0 | 0.00 | 0.00 | 0.00 | 1 | 1020.4 |
| 20260830082738 | 58 | 216 | 0.0 | 0.0 | 0.00 | 0.00 | 0.00 | 1 | 1020.4 |
| 20260830082231 | 58 | 216 | 0.0 | 0.0 | 0.00 | 0.00 | 0.00 | 1 | 1020.5 |
| 20260830081726 | 58 | 216 | 0.0 | 0.0 | 0.00 | 0.00 | 0.00 | 1 | 1020.5 |
| 20260830081221 | 58 | 216 | 0.0 | 0.0 | 0.00 | 0.00 | 0.00 | 1 | 1020.4 |
| 20260830080713 | 59 | 216 | 0.0 | 0.0 | 0.00 | 0.00 | 0.00 | 1 | 1020.4 |
| 20260830080208 | 59 | 216 | 0.0 | 0.0 | 0.00 | 0.00 | 0.00 | 1 | 1020.3 |
| 20260830075702 | 59 | 216 | 0.0 | 0.0 | 0.00 | 0.00 | 0.00 | 1 | 1020.3 |
| 20260830075424 | 59 | 216 | 0.0 | 0.0 | 0.00 | 0.00 | 0.00 | 1 | 1020.4 |
| 20260830074650 | 58 | 216 | 0.0 | 0.0 | 0.00 | 0.00 | 0.00 | 1 | 1020.5 |
| 20260830074144 | 58 | 216 | 0.0 | 0.0 | 0.00 | 0.00 | 0.00 | 1 | 1020.4 |
| 20260830073638 | 58 | 216 | 0.0 | 0.0 | 0.00 | 0.00 | 0.00 | 1 | 1020.5 |
| 20260830073350 | 58 | 216 | 0.0 | 0.0 | 0.00 | 0.00 | 0.00 | 1 | 1020.4 |
| 20260830072625 | 58 | 216 | 0.0 | 0.0 | 0.00 | 0.00 | 0.00 | 1 | 1020.4 |
| 20260830072343 | 58 | 216 | 0.0 | 0.0 | 0.00 | 0.00 | 0.00 | 1 | 1020.4 |
| 20260830071614 | 58 | 216 | 0.0 | 0.0 | 0.00 | 0.00 | 0.00 | 1 | 1020.3 |
| 20260830071109 | 58 | 216 | 0.0 | 0.0 | 0.00 | 0.00 | 0.00 | 1 | 1020.2 |
| 20260830070601 | 58 | 216 | 0.0 | 0.0 | 0.00 | 0.00 | 0.00 | 1 | 1020.1 |
| 20260830070056 | 58 | 216 | 0.0 | 0.0 | 0.00 | 0.00 | 0.00 | 1 | 1020.1 |
| 20260830065817 | 58 | 216 | 0.0 | 0.0 | 0.00 | 0.00 | 0.00 | 1 | 1020.0 |
| 20260830065043 | 58 | 216 | 0.0 | 0.0 | 0.00 | 0.00 | 0.00 | 1 | 1020.0 |
| 20260830064757 | 57 | 216 | 0.0 | 0.0 | 0.00 | 0.00 | 0.00 | 1 | 1020.0 |
| 20260830064032 | 57 | 216 | 0.0 | 0.0 | 0.00 | 0.00 | 0.00 | 1 | 1020.1 |
| 20260830063526 | 57 | 216 | 0.0 | 0.0 | 0.00 | 0.00 | 0.00 | 1 | 1020.2 |
| 20260830063019 | 57 | 216 | 0.0 | 0.0 | 0.00 | 0.00 | 0.00 | 1 | 1020.1 |
| 20260830062514 | 57 | 216 | 0.0 | 0.0 | 0.00 | 0.00 | 0.00 | 1 | 1020.2 |
| 20260830062008 | 57 | 216 | 0.0 | 0.0 | 0.00 | 0.00 | 0.00 | 1 | 1020.3 |
| 20260830061502 | 57 | 216 | 0.0 | 0.0 | 0.00 | 0.00 | 0.00 | 1 | 1020.4 |
| 20260830061220 | 57 | 216 | 0.0 | 0.0 | 0.00 | 0.00 | 0.00 | 1 | 1020.5 |
| 20260830060450 | 57 | 216 | 0.0 | 0.0 | 0.00 | 0.00 | 0.00 | 1 | 1020.5 |
| 20260830060211 | 57 | 216 | 0.0 | 0.0 | 0.00 | 0.00 | 0.00 | 1 | 1020.4 |
| 20260830055438 | 58 | 216 | 0.0 | 0.0 | 0.00 | 0.00 | 0.00 | 1 | 1020.4 |
| 20260830054932 | 58 | 216 | 0.0 | 0.0 | 0.00 | 0.00 | 0.00 | 1 | 1020.5 |
| 20260830054915 | 58 | 216 | 0.0 | 0.0 | 0.00 | 0.00 | 0.00 | 1 | 1020.5 |
| 20260830053919 | 58 | 216 | 0.0 | 0.0 | 0.00 | 0.00 | 0.00 | 1 | 1020.5 |
| 20260830053412 | 58 | 216 | 0.0 | 0.0 | 0.00 | 0.00 | 0.00 | 1 | 1020.5 |
| 20260830052906 | 58 | 216 | 0.0 | 0.0 | 0.00 | 0.00 | 0.00 | 1 | 1020.5 |
| 20260830052400 | 58 | 216 | 0.0 | 0.0 | 0.00 | 0.00 | 0.00 | 1 | 1020.4 |
| 20260830051853 | 58 | 216 | 0.0 | 0.0 | 0.00 | 0.00 | 0.00 | 1 | 1020.3 |
| 20260830051616 | 58 | 216 | 0.0 | 0.0 | 0.00 | 0.00 | 0.00 | 1 | 1020.2 |
| 20260830050843 | 58 | 216 | 0.0 | 0.0 | 0.00 | 0.00 | 0.00 | 1 | 1020.2 |
| 20260830050336 | 58 | 216 | 0.0 | 0.0 | 0.00 | 0.00 | 0.00 | 1 | 1020.1 |
| 20260830045829 | 58 | 216 | 0.0 | 0.0 | 0.00 | 0.00 | 0.00 | 1 | 1020.1 |
| 20260830045324 | 58 | 216 | 0.0 | 0.0 | 0.00 | 0.00 | 0.00 | 1 | 1020.1 |
| 20260830044818 | 58 | 216 | 0.0 | 0.0 | 0.00 | 0.00 | 0.00 | 1 | 1020.2 |
| 20260830044312 | 58 | 216 | 0.0 | 0.0 | 0.00 | 0.00 | 0.00 | 1 | 1020.3 |
| 20260830043806 | 58 | 215 | 0.0 | 0.0 | 0.00 | 0.00 | 0.00 | 1 | 1020.3 |
| 20260830043300 | 58 | 215 | 0.0 | 0.0 | 0.00 | 0.00 | 0.00 | 1 | 1020.4 |
| 20260830042754 | 58 | 215 | 0.0 | 0.0 | 0.00 | 0.00 | 0.00 | 1 | 1020.4 |
| 20260830042248 | 58 | 215 | 0.0 | 0.0 | 0.00 | 0.00 | 0.00 | 1 | 1020.4 |
| 20260830041742 | 59 | 215 | 0.0 | 0.0 | 0.00 | 0.00 | 0.00 | 1 | 1020.3 |
| 20260830041502 | 59 | 215 | 0.0 | 0.0 | 0.00 | 0.00 | 0.00 | 1 | 1020.4 |
| 20260830040730 | 59 | 215 | 0.0 | 0.0 | 0.00 | 0.00 | 0.00 | 1 | 1020.4 |
| 20260830040441 | 59 | 215 | 0.0 | 0.0 | 0.00 | 0.00 | 0.00 | 1 | 1020.3 |
| 20260830035717 | 59 | 215 | 0.0 | 0.0 | 0.00 | 0.00 | 0.00 | 1 | 1020.2 |
| 20260830035212 | 59 | 215 | 0.0 | 0.0 | 0.00 | 0.00 | 0.00 | 1 | 1020.2 |
| 20260830034928 | 59 | 215 | 0.0 | 0.0 | 0.00 | 0.00 | 0.00 | 1 | 1020.1 |
| 20260830034201 | 60 | 215 | 0.0 | 0.0 | 0.00 | 0.00 | 0.00 | 1 | 1020.0 |
| 20260830033653 | 60 | 215 | 0.0 | 0.0 | 0.00 | 0.00 | 0.00 | 1 | 1020.1 |
| 20260830033148 | 60 | 0 | 0.0 | 0.0 | 0.00 | 0.00 | 0.00 | 1 | 1020.2 |
| 20260830032642 | 60 | 215 | 0.0 | 0.0 | 0.00 | 0.00 | 0.00 | 1 | 1020.1 |
| 20260830032136 | 60 | 216 | 0.0 | 0.0 | 0.00 | 0.00 | 0.00 | 1 | 1020.2 |
| 20260830031630 | 60 | 216 | 0.0 | 0.0 | 0.00 | 0.00 | 0.00 | 1 | 1020.2 |
| 20260830031124 | 60 | 216 | 0.0 | 0.0 | 0.00 | 0.00 | 0.00 | 1 | 1020.2 |
| 20260830030618 | 60 | 216 | 0.0 | 0.0 | 0.00 | 0.00 | 0.00 | 1 | 1020.1 |
| 20260830030333 | 61 | 216 | 0.0 | 0.0 | 0.00 | 0.00 | 0.00 | 1 | 1020.1 |
| 20260830025606 | 61 | 216 | 0.0 | 0.0 | 0.00 | 0.00 | 0.00 | 1 | 1020.2 |
| 20260830025100 | 61 | 216 | 0.0 | 0.0 | 0.00 | 0.00 | 0.00 | 1 | 1020.1 |
| 20260830024555 | 61 | 216 | 0.0 | 0.0 | 0.00 | 0.00 | 0.00 | 1 | 1020.1 |
| 20260830024049 | 61 | 216 | 0.0 | 0.0 | 0.00 | 0.00 | 0.00 | 1 | 1020.1 |
| 20260830023542 | 61 | 216 | 0.0 | 0.0 | 0.00 | 0.00 | 0.00 | 1 | 1020.0 |
| 20260830023036 | 62 | 216 | 0.0 | 0.0 | 0.00 | 0.00 | 0.00 | 1 | 1020.0 |
| 20260830022530 | 62 | 216 | 0.0 | 0.0 | 0.00 | 0.00 | 0.00 | 1 | 1020.1 |
| 20260830022024 | 62 | 216 | 0.0 | 0.0 | 0.00 | 0.00 | 0.00 | 1 | 1020.2 |
| 20260830021518 | 62 | 216 | 0.0 | 0.0 | 0.00 | 0.00 | 0.00 | 1 | 1020.0 |
| 20260830021012 | 62 | 216 | 0.0 | 0.0 | 0.00 | 0.00 | 0.00 | 1 | 1020.0 |
| 20260830020506 | 62 | 216 | 0.0 | 0.0 | 0.00 | 0.00 | 0.00 | 1 | 1020.0 |
| 20260830020001 | 62 | 216 | 0.0 | 0.0 | 0.00 | 0.00 | 0.00 | 1 | 1020.0 |
| 20260830015454 | 63 | 216 | 0.0 | 0.0 | 0.00 | 0.00 | 0.00 | 1 | 1019.9 |
| 20260830014948 | 63 | 216 | 0.0 | 0.0 | 0.00 | 0.00 | 0.00 | 1 | 1019.9 |
| 20260830014710 | 63 | 216 | 0.0 | 0.0 | 0.00 | 0.00 | 0.00 | 1 | 1019.9 |
| 20260830013936 | 63 | 216 | 0.0 | 0.0 | 0.00 | 0.00 | 0.00 | 1 | 1019.9 |
| 20260830013430 | 63 | 216 | 0.0 | 0.0 | 0.00 | 0.00 | 0.00 | 1 | 1020.1 |
| 20260830012924 | 63 | 216 | 0.0 | 0.0 | 0.00 | 0.00 | 0.00 | 1 | 1020.0 |
| 20260830012418 | 63 | 216 | 0.0 | 0.0 | 0.00 | 0.00 | 0.00 | 1 | 1019.9 |
| 20260830012137 | 64 | 216 | 0.0 | 0.0 | 0.00 | 0.00 | 0.00 | 1 | 1019.9 |
| 20260830011406 | 64 | 216 | 0.0 | 0.0 | 0.00 | 0.00 | 0.00 | 1 | 1019.9 |
| 20260830010901 | 64 | 216 | 0.0 | 0.0 | 0.00 | 0.00 | 0.00 | 1 | 1019.9 |
| 20260830010356 | 64 | 216 | 0.0 | 0.0 | 0.00 | 0.00 | 0.00 | 1 | 1019.8 |
| 20260830005856 | 63 | 216 | 0.0 | 0.0 | 0.00 | 0.00 | 0.00 | 1 | 1019.7 |
| 20260830005618 | 64 | 216 | 0.0 | 0.0 | 0.00 | 0.00 | 0.00 | 1 | 1019.7 |
| 20260830004856 | 64 | 216 | 0.0 | 0.0 | 0.00 | 0.00 | 0.00 | 1 | 1019.6 |
| 20260830004356 | 64 | 216 | 0.0 | 0.0 | 0.00 | 0.00 | 0.00 | 1 | 1019.4 |
| 20260830003856 | 64 | 216 | 0.0 | 0.0 | 0.00 | 0.00 | 0.00 | 1 | 1019.3 |
| 20260830003356 | 64 | 216 | 0.0 | 0.0 | 0.00 | 0.00 | 0.00 | 1 | 1019.2 |
| 20260830002856 | 65 | 216 | 0.0 | 0.0 | 0.00 | 0.00 | 0.00 | 1 | 1019.2 |
| 20260830002355 | 65 | 216 | 0.0 | 0.0 | 0.00 | 0.00 | 0.00 | 1 | 1019.1 |
| 20260830001857 | 65 | 216 | 0.0 | 0.0 | 0.00 | 0.00 | 0.00 | 1 | 1019.0 |
| 20260830001617 | 65 | 216 | 0.0 | 0.0 | 0.00 | 0.00 | 0.00 | 1 | 1018.9 |
| 20260830000857 | 65 | 216 | 0.0 | 0.0 | 0.00 | 0.00 | 0.00 | 1 | 1018.9 |